This is the latest recevied weather packets stored in our database for station/object KE5VT. If no packets are shown the sender has not sent any weather packets the latest 10 day(s).
| Time | Temp. | Humidity | Pressure | Rain* | Wind** | Luminosity | Snow |
|---|---|---|---|---|---|---|---|
| 1777390375 | 12.78° C | 99% | 1018.5 hPa | 0 mm | - | 169 W/m² | - |
| 1777390070 | 12.78° C | 99% | 1018.5 hPa | 0 mm | - | 176 W/m² | - |
| 1777389768 | 12.78° C | 99% | 1018.7 hPa | 0 mm | - | 161 W/m² | - |
| 1777389464 | 12.78° C | 99% | 1018.6 hPa | 0 mm | - | 153 W/m² | - |
| 1777389162 | 12.78° C | 99% | 1018.5 hPa | 0 mm | - | 118 W/m² | - |
| 1777388860 | 12.22° C | 99% | 1018.6 hPa | 0 mm | - | 88 W/m² | - |
| 1777388556 | 12.22° C | 99% | 1018.4 hPa | 0 mm | - | 68 W/m² | - |
| 1777388252 | 12.22° C | 99% | 1018.4 hPa | 1.78 mm | - | 57 W/m² | - |
| 1777387947 | 12.22° C | 99% | 1017 hPa | 1.78 mm | - | 57 W/m² | - |
| 1777387644 | 12.22° C | 99% | 1017.2 hPa | 1.78 mm | - | 53 W/m² | - |
| 1777387341 | 12.22° C | 99% | 1017.3 hPa | 0 mm | - | 53 W/m² | - |
| 1777387040 | 12.22° C | 99% | 1017.9 hPa | 1.27 mm | - | 55 W/m² | - |
| 1777386736 | 12.22° C | 99% | 1018.6 hPa | 3.05 mm | - | 44 W/m² | - |
| 1777386434 | 12.22° C | 99% | 1018.8 hPa | 3.56 mm | - | 34 W/m² | - |
| 1777386131 | 12.22° C | 99% | 1019.2 hPa | 3.05 mm | - | 24 W/m² | - |
| 1777385827 | 12.22° C | 99% | 1019.6 hPa | 4.32 mm | - | 18 W/m² | - |
| 1777385524 | 12.22° C | 99% | 1019.7 hPa | 4.83 mm | - | 15 W/m² | - |
| 1777385221 | 12.22° C | 99% | 1019.9 hPa | 1.78 mm | - | 13 W/m² | - |
| 1777384917 | 12.22° C | 99% | 1020.3 hPa | 0 mm | - | 14 W/m² | - |
| 1777384615 | 12.22° C | 99% | 1020.6 hPa | 0 mm | - | 30 W/m² | - |
| 1777384315 | 12.22° C | 99% | 1021.1 hPa | 0 mm | - | 41 W/m² | - |
| 1777384010 | 12.22° C | 99% | 1020.8 hPa | 0 mm | - | 56 W/m² | - |
| 1777383706 | 12.22° C | 99% | 1020.5 hPa | 0 mm | - | 47 W/m² | - |
| 1777383403 | 12.22° C | 99% | 1020.4 hPa | 1.27 mm | - | 40 W/m² | - |
| 1777383099 | 12.22° C | 99% | 1020.4 hPa | 1.27 mm | - | 43 W/m² | - |
* Rain latest hour (hover to see other rain measurements)
** Current wind speed in m/s (hover to see current wind gust speed)